[[{"header":{"parameterUnit":"m.s-1","parameterCategory":2,"la1":30.2991,"la2":30.254,"lo1":-89.0895,"lo2":-89.0444,"dy":0.0017,"dx":0.0017,"nx":28,"ny":28,"refTime":"2024-02-11T09:00:00:Z","depth":"0","parameterNumber":2,"parameterNumberName":"U-component_of_CURRENTS"},"data":[0,0,0,0,0,0,0,0,0,0,0,0,0,0,0,0,0,0,0,0,0,0,0,0,0,0,0,0,0,0,0,0,0,0,0,0,0,0,0,0,0,0,0,0,0,0,0,0,0,0,0,0,0,0,0,0,0,0,-0.2045,-0.2046,0,-0.2059,-0.2059,-0.2059,-0.2056,-0.2056,-0.2056,-0.2055,-0.2049,-0.2048,-0.2048,0,0,0,0,0,0,0,0,0,0,0,0,0,-0.2022,-0.2022,-0.2045,-0.2046,-0.2046,-0.2059,-0.2059,-0.2059,-0.2056,-0.2056,-0.2056,-0.2055,-0.2049,-0.2048,-0.2048,0,0,0,0,0,0,0,0,0,0,0,0,0,-0.2032,-0.2022,-0.2045,-0.2047,-0.2047,-0.2059,-0.2059,-0.2059,-0.2056,-0.2056,-0.2056,-0.2055,-0.2049,-0.2048,-0.2048,-0.2052,0,0,-0.2048,-0.2048,0,0,0,0,0,0,0,0,-0.2031,-0.2033,-0.2046,-0.2047,-0.2047,-0.2057,-0.2048,-0.2056,-0.2056,-0.2051,-0.2055,-0.2055,-0.205,-0.205,-0.2052,-0.2052,-0.2052,-0.2048,-0.2048,-0.2048,-0.2048,0,0,0,0,0,0,0,-0.2031,-0.2032,-0.2049,-0.2047,-0.2047,-0.2049,-0.205,-0.205,-0.205,-0.2052,-0.2052,-0.2055,-0.205,-0.2052,-0.2051,-0.2051,-0.2048,-0.2048,-0.2048,-0.2048,-0.2136,-0.2139,0,0,0,0,0,0,-0.2032,-0.2031,-0.2049,-0.205,-0.204,-0.2049,-0.205,-0.2053,-0.2051,-0.2051,-0.2056,-0.2055,-0.2052,-0.2051,-0.2051,-0.2124,-0.2048,-0.2048,-0.2048,-0.2134,-0.2137,-0.2139,0,0,0,0,0,0,-0.2031,-0.2033,-0.2049,-0.2042,-0.2044,-0.205,-0.2053,-0.2053,-0.2054,-0.2054,-0.2054,-0.2056,-0.2052,-0.2051,-0.2063,-0.2121,-0.2048,-0.2048,-0.2131,-0.2135,-0.2138,-0.2226,0,0,0,0,0,0,-0.203,-0.2033,-0.2031,-0.2042,-0.2045,-0.207,-0.2053,-0.2054,-0.2057,-0.2057,-0.2055,-0.2054,-0.2052,-0.2063,-0.2063,-0.212,-0.2048,-0.2128,-0.2133,-0.2137,-0.222,-0.2232,-0.2243,0,0,0,0,0,-0.2029,-0.2035,-0.2031,-0.2033,-0.2044,-0.2071,-0.2073,-0.2075,-0.2058,-0.2071,-0.2066,-0.2054,-0.2093,-0.2064,-0.2063,-0.2122,-0.2126,-0.2131,-0.2137,-0.2215,-0.223,-0.2243,0,0,0,0,0,0,-0.2021,-0.2036,-0.2031,-0.2039,-0.2059,-0.2071,-0.2077,-0.2075,-0.208,-0.2074,-0.2065,-0.2065,-0.2104,-0.2095,-0.2064,-0.2163,-0.2115,-0.2121,-0.2176,-0.2189,-0.22,-0.2196,-0.2048,0,0,0,0,0,-0.2018,-0.2025,-0.2045,-0.2049,-0.2059,-0.2064,-0.2071,-0.2078,-0.2085,-0.2087,-0.2085,-0.2096,-0.2127,-0.214,-0.2154,-0.2192,-0.215,-0.2237,-0.2248,-0.2258,-0.2256,-0.2233,-0.2241,-0.2157,-0.2157,-0.2157,0,0,-0.2014,-0.2022,-0.2025,-0.2047,-0.2055,-0.21,-0.2068,-0.2087,-0.2133,-0.2085,-0.2129,-0.2124,-0.2143,-0.2198,-0.2217,-0.2197,-0.2261,-0.2264,-0.2272,-0.2265,-0.224,-0.2247,-0.2254,-0.2161,-0.216,-0.2159,0,0,-0.203,-0.2018,-0.2043,-0.2069,-0.2094,-0.2111,-0.2119,-0.2139,-0.2154,-0.2191,-0.2184,-0.2202,-0.2236,-0.2268,-0.229,-0.2367,-0.2315,-0.2387,-0.2446,-0.2426,-0.2432,-0.2436,-0.239,-0.239,-0.2401,-0.2401,-0.2401,0,-0.2025,-0.2059,-0.2054,-0.2099,-0.213,-0.2123,-0.2179,-0.2204,-0.2227,-0.2245,-0.222,-0.2269,-0.2277,-0.2356,-0.2396,-0.2393,-0.2356,-0.2393,-0.2438,-0.2441,-0.2444,-0.2396,-0.2394,-0.2406,-0.2405,-0.2405,-0.2404,0,-0.2077,-0.2107,-0.2124,-0.2184,-0.2221,-0.2257,-0.2305,-0.2334,-0.2339,-0.2356,-0.2402,-0.2396,-0.2423,-0.245,-0.245,-0.2505,-0.2463,-0.2445,-0.2396,-0.2458,-0.2403,-0.24,-0.2413,-0.2411,-0.2409,-0.2408,0,0,-0.2055,-0.2144,-0.215,-0.2197,-0.2268,-0.2304,-0.2389,-0.2457,-0.2492,-0.2508,-0.2546,-0.2603,-0.2561,-0.2582,-0.2577,-0.2572,-0.2569,-0.2527,-0.2524,-0.2468,-0.2499,-0.2426,-0.2414,-0.2553,-0.2553,-0.2553,-0.245,0,-0.2095,-0.2192,-0.2235,-0.2335,-0.2389,-0.2433,-0.251,-0.257,-0.2592,-0.2621,-0.2624,-0.2645,-0.2628,-0.2624,-0.2625,-0.2578,-0.2565,-0.2597,-0.2459,-0.2455,-0.2371,-0.241,-0.2327,-0.2224,-0.2446,-0.2446,-0.2445,0,-0.2134,-0.2196,-0.2296,-0.241,-0.2437,-0.2498,-0.2594,-0.2662,-0.2715,-0.2724,-0.2737,-0.2715,-0.2731,-0.2684,-0.2631,-0.2647,-0.2586,-0.2539,-0.2533,-0.2428,-0.2375,-0.2201,-0.2209,-0.2193,-0.2439,-0.244,-0.244,0,-0.2115,-0.2239,-0.2315,-0.2355,-0.2482,-0.2533,-0.2599,-0.2676,-0.2721,-0.2763,-0.2762,-0.2773,-0.274,-0.2693,-0.2599,-0.2614,-0.25,-0.2505,-0.2378,-0.2371,-0.2254,-0.2236,-0.2216,-0.2457,-0.2457,-0.2457,-0.2458,0,-0.2138,-0.2198,-0.2303,-0.2345,-0.2429,-0.2524,-0.2599,-0.2663,-0.2728,-0.2751,-0.2786,-0.2766,-0.2736,-0.2667,-0.2602,-0.2464,-0.2496,-0.2384,-0.2345,-0.2283,-0.227,-0.2212,-0.223,-0.2453,-0.2454,-0.2455,-0.2456,0,-0.2098,-0.2173,-0.2254,-0.2379,-0.2416,-0.2467,-0.2587,-0.2634,-0.2699,-0.2721,-0.2728,-0.2744,-0.2655,-0.2599,-0.2494,-0.2436,-0.2285,-0.2273,-0.219,-0.2144,-0.2036,-0.2063,-0.1978,-0.1922,-0.2136,-0.2134,-0.2132,0,-0.2088,-0.2122,-0.2238,-0.2274,-0.2323,-0.2412,-0.247,-0.2591,-0.2627,-0.268,-0.267,-0.2624,-0.2553,-0.2389,-0.2283,-0.2152,-0.2157,-0.2008,-0.2039,-0.2017,-0.2018,-0.2044,-0.2005,-0.1914,-0.191,-0.1908,-0.1905,0,-0.205,-0.2074,-0.213,-0.2199,-0.226,-0.2336,-0.2419,-0.2449,-0.2557,-0.2555,-0.2518,-0.2472,-0.2349,-0.2183,-0.2045,-0.1961,-0.1973,-0.1943,-0.1944,-0.1865,-0.1865,-0.1795,-0.1988,-0.1879,-0.1882,-0.1883,-0.1885,-0.1886,-0.1985,-0.1996,-0.2052,-0.2109,-0.2177,-0.2222,-0.2228,-0.2295,-0.2308,-0.227,-0.2316,-0.2202,-0.2116,-0.1914,-0.1829,-0.1691,-0.1757,-0.1653,-0.169,-0.1719,-0.1667,-0.1794,-0.1633,-0.1634,-0.1635,-0.1636,-0.1637,0,-0.19,-0.1923,-0.1967,-0.2018,-0.2035,-0.2109,-0.216,-0.2119,-0.2054,-0.2049,-0.1978,-0.1888,-0.1742,-0.1683,-0.1553,-0.1471,-0.1449,-0.1441,-0.1475,-0.1448,-0.1564,-0.1558,-0.1344,-0.1344,-0.1344,-0.1344,-0.1344,-0.1344,-0.1856,-0.1852,-0.1874,-0.1856,-0.1882,-0.1837,-0.1826,-0.1764,-0.1731,-0.1599,-0.1549,-0.1566,-0.1549,-0.1592,-0.1465,-0.1384,-0.1361,-0.131,-0.1337,-0.1451,-0.1475,-0.1498,-0.1496,-0.1273,-0.1273,-0.117,-0.1169,-0.1169]},{"header":{"parameterUnit":"m.s-1","parameterCategory":2,"la1":30.2991,"la2":30.254,"lo1":-89.0895,"lo2":-89.0444,"dy":0.0017,"dx":0.0017,"nx":28,"ny":28,"refTime":"2024-02-11T09:00:00:Z","depth":"0","parameterNumber":3,"parameterNumberName":"V-component_of_CURRENTS"},"data":[0,0,0,0,0,0,0,0,0,0,0,0,0,0,0,0,0,0,0,0,0,0,0,0,0,0,0,0,0,0,0,0,0,0,0,0,0,0,0,0,0,0,0,0,0,0,0,0,0,0,0,0,0,0,0,0,0,0,-0.0188,-0.0187,0,-0.0144,-0.0143,-0.0143,-0.0119,-0.0119,-0.0119,-0.0119,-0.0018,-0.0015,-0.0012,0,0,0,0,0,0,0,0,0,0,0,0,0,-0.021,-0.021,-0.0188,-0.0187,-0.0187,-0.0144,-0.0143,-0.0143,-0.0119,-0.0119,-0.0119,-0.0119,-0.0018,-0.0015,-0.0012,0,0,0,0,0,0,0,0,0,0,0,0,0,-0.0186,-0.021,-0.0188,-0.017,-0.0169,-0.0144,-0.0143,-0.0143,-0.0119,-0.0119,-0.0119,-0.0119,-0.002,-0.0016,-0.0012,0.0014,0,0,0.0001,0.0003,0,0,0,0,0,0,0,0,-0.0187,-0.0185,-0.0174,-0.0172,-0.0169,-0.0138,-0.0114,-0.0088,-0.0119,-0.0137,-0.0119,-0.0119,-0.0053,-0.0046,-0.0038,0.0019,0.0023,0.0001,0.0004,0.0005,0.0007,0,0,0,0,0,0,0,-0.0189,-0.0187,-0.017,-0.0173,-0.0171,-0.0151,-0.0148,-0.0109,-0.0094,-0.0135,-0.0134,-0.013,-0.0051,-0.0042,-0.0035,0.0024,0.0001,0.0005,0.0007,0.0009,0.0155,0.0157,0,0,0,0,0,0,-0.0198,-0.0188,-0.0171,-0.0169,-0.0179,-0.0151,-0.0147,-0.0147,-0.0095,-0.0088,-0.013,-0.0129,-0.0049,-0.004,-0.0031,0.0031,0.0005,0.0009,0.0012,0.0154,0.0156,0.0157,0,0,0,0,0,0,-0.0199,-0.0197,-0.0173,-0.0178,-0.0173,-0.0151,-0.0151,-0.0146,-0.0137,-0.0092,-0.0084,-0.0126,-0.0048,-0.0037,0.0004,0.0034,0.0011,0.0015,0.0152,0.0154,0.0156,0.0137,0,0,0,0,0,0,-0.02,-0.0198,-0.0201,-0.0179,-0.0173,-0.0163,-0.0151,-0.0146,-0.0135,-0.0133,-0.0085,-0.0076,-0.0047,-0.0002,0.0008,0.0039,0.0018,0.015,0.0153,0.0156,0.0136,0.0138,0.014,0,0,0,0,0,-0.0201,-0.0207,-0.0202,-0.02,-0.0179,-0.0163,-0.0158,-0.0141,-0.0135,-0.0133,-0.0098,-0.0077,0.0023,0.0001,0.0013,0.0047,0.0149,0.0152,0.0156,0.0135,0.0138,0.014,0,0,0,0,0,0,-0.0218,-0.0205,-0.0199,-0.0201,-0.0185,-0.0159,-0.0156,-0.0143,-0.0115,-0.0112,-0.007,-0.0058,-0.0011,0.0022,-0.0003,0.01,0.0095,0.01,0.0075,0.0078,0.008,0.008,0.0021,0,0,0,0,0,-0.0225,-0.0227,-0.0207,-0.0209,-0.0203,-0.018,-0.0171,-0.0159,-0.0132,-0.0121,-0.0086,-0.0037,0.0013,0.0045,0.0083,0.0137,0.0175,0.0172,0.0174,0.0176,0.0186,0.027,0.0281,0.0168,0.0168,0.0168,0,0,-0.0231,-0.0225,-0.0225,-0.0213,-0.0199,-0.0193,-0.0175,-0.0165,-0.015,-0.0112,-0.0081,-0.0039,0.0025,0.008,0.0108,0.0113,0.0224,0.018,0.018,0.019,0.0275,0.0286,0.0296,0.017,0.017,0.0169,0,0,-0.0252,-0.0241,-0.0252,-0.0242,-0.0227,-0.0205,-0.0204,-0.0179,-0.0158,-0.0126,-0.0085,-0.0021,0.0036,0.0105,0.0145,0.0188,0.0222,0.02,0.0225,0.0306,0.0316,0.0325,0.0366,0.038,0.0214,0.0214,0.0214,0,-0.0262,-0.0275,-0.0251,-0.0259,-0.0251,-0.0213,-0.0218,-0.0186,-0.0149,-0.0114,-0.0121,0.0009,0.0057,0.0162,0.0178,0.0196,0.0227,0.0204,0.0308,0.0318,0.0328,0.0368,0.0383,0.0214,0.0214,0.0214,0.0214,0,-0.0292,-0.0301,-0.0305,-0.0299,-0.0281,-0.0281,-0.0236,-0.0206,-0.0175,-0.0131,-0.0043,0.0028,0.0113,0.0146,0.0174,0.0282,0.0274,0.0287,0.0295,0.0338,0.0378,0.0393,0.0213,0.0213,0.0213,0.0214,0,0,-0.0319,-0.0328,-0.0329,-0.0341,-0.0306,-0.0299,-0.0252,-0.0193,-0.015,-0.009,-0.0023,0.0085,0.0134,0.0185,0.0244,0.0326,0.0415,0.0334,0.0339,0.0363,0.0565,0.0526,0.0539,0.044,0.0443,0.0446,0.0556,0,-0.0352,-0.0391,-0.0368,-0.0383,-0.0398,-0.0337,-0.0292,-0.0224,-0.0157,-0.008,0.0035,0.0109,0.0148,0.0189,0.0283,0.0381,0.0459,0.0382,0.0531,0.0535,0.0487,0.0558,0.0556,0.0652,0.0572,0.0574,0.0576,0,-0.0388,-0.0413,-0.0445,-0.0434,-0.0429,-0.0416,-0.0332,-0.029,-0.015,-0.0094,0.0022,0.01,0.0245,0.0254,0.0459,0.0403,0.0484,0.0556,0.0562,0.0548,0.0527,0.0603,0.0683,0.0798,0.06,0.0599,0.0597,0,-0.0438,-0.0459,-0.0491,-0.0493,-0.0466,-0.0446,-0.0411,-0.0291,-0.024,-0.0101,-0.0045,0.0126,0.0209,0.035,0.0488,0.0482,0.0688,0.07,0.0743,0.0739,0.0781,0.0775,0.0984,0.0845,0.0845,0.0844,0.0844,0,-0.0487,-0.0512,-0.0523,-0.0547,-0.0558,-0.0505,-0.0467,-0.0401,-0.028,-0.0209,-0.0062,0.0028,0.0237,0.0375,0.0496,0.0658,0.0698,0.0765,0.0783,0.077,0.0762,0.0896,0.0935,0.0849,0.0848,0.0847,0.0846,0,-0.0539,-0.0547,-0.0592,-0.0591,-0.0591,-0.0598,-0.0538,-0.0493,-0.0377,-0.028,-0.024,-0.0027,0.0153,0.0334,0.0564,0.0661,0.088,0.0855,0.0799,0.0808,0.0952,0.0987,0.1199,0.1259,0.0947,0.0947,0.0947,0,-0.0569,-0.0603,-0.0646,-0.0674,-0.0682,-0.0678,-0.0659,-0.0559,-0.05,-0.0315,-0.0266,-0.007,0.0077,0.0384,0.0591,0.0797,0.0894,0.0903,0.0908,0.098,0.1035,0.1063,0.1101,0.0953,0.0953,0.0953,0.0953,0,-0.0629,-0.0645,-0.0687,-0.0755,-0.0771,-0.0772,-0.0737,-0.0706,-0.0565,-0.0473,-0.0318,-0.0192,0.0116,0.0378,0.0633,0.0753,0.0975,0.0907,0.1036,0.1105,0.1104,0.116,0.0825,0.0953,0.0953,0.0953,0.0953,0.0953,-0.0665,-0.0715,-0.0773,-0.0833,-0.0854,-0.0852,-0.0841,-0.0774,-0.0695,-0.0533,-0.0397,-0.0192,0.0198,0.0578,0.0724,0.1008,0.1001,0.1098,0.1148,0.118,0.1213,0.0842,0.0948,0.0948,0.0948,0.0948,0.0948,0,-0.0708,-0.0771,-0.0841,-0.0903,-0.0933,-0.0921,-0.0876,-0.0835,-0.0755,-0.0587,-0.0437,-0.0023,0.0336,0.0691,0.1103,0.1257,0.1313,0.1326,0.1408,0.1446,0.1181,0.1155,0.1246,0.1245,0.1245,0.1245,0.1245,0.1245,-0.0734,-0.0823,-0.0871,-0.0956,-0.0988,-0.0991,-0.0963,-0.0891,-0.0765,-0.0517,-0.027,-0.0054,0.0435,0.1119,0.15,0.1527,0.1686,0.1646,0.1739,0.1584,0.1568,0.1553,0.1541,0.1712,0.1712,0.1997,0.1999,0.2002]}],[{"header":{"parameterUnit":"m.s-1","parameterCategory":2,"la1":30.2991,"la2":30.254,"lo1":-89.0895,"lo2":-89.0444,"dy":0.0017,"dx":0.0017,"nx":28,"ny":28,"refTime":"2024-02-11T09:00:00:Z","depth":"2","parameterNumber":2,"parameterNumberName":"U-component_of_CURRENTS"},"data":[0,0,0,0,0,0,0,0,0,0,0,0,0,0,0,0,0,0,0,0,0,0,0,0,0,0,0,0,0,0,0,0,0,0,0,0,0,0,0,0,0,0,0,0,0,0,0,0,0,0,0,0,0,0,0,0,0,0,-0.1747,-0.1747,0,-0.1754,-0.1754,-0.1754,-0.1749,-0.1749,-0.1749,-0.1749,-0.1736,-0.1736,-0.1736,0,0,0,0,0,0,0,0,0,0,0,0,0,-0.1731,-0.1732,-0.1747,-0.1747,-0.1748,-0.1754,-0.1754,-0.1754,-0.1749,-0.1749,-0.1749,-0.1749,-0.1736,-0.1736,-0.1736,0,0,0,0,0,0,0,0,0,0,0,0,0,-0.1737,-0.1732,-0.1747,-0.1747,-0.1747,-0.1754,-0.1754,-0.1754,-0.1749,-0.1749,-0.1749,-0.1749,-0.1736,-0.1736,-0.1736,-0.1737,0,0,-0.1735,-0.1735,0,0,0,0,0,0,0,0,-0.1737,-0.1738,-0.1747,-0.1747,-0.1747,-0.1752,-0.1744,-0.1748,-0.1749,-0.1747,-0.1749,-0.1748,-0.1741,-0.174,-0.174,-0.1736,-0.1736,-0.1735,-0.1735,-0.1734,-0.1734,0,0,0,0,0,0,0,-0.1736,-0.1737,-0.1749,-0.1747,-0.1747,-0.1747,-0.1747,-0.1745,-0.1743,-0.1747,-0.1747,-0.175,-0.174,-0.174,-0.174,-0.1736,-0.1735,-0.1734,-0.1734,-0.1734,-0.1773,-0.1774,0,0,0,0,0,0,-0.1738,-0.1737,-0.1748,-0.1749,-0.1743,-0.1748,-0.1748,-0.1749,-0.1744,-0.1743,-0.175,-0.175,-0.1741,-0.174,-0.1739,-0.1791,-0.1734,-0.1734,-0.1734,-0.1772,-0.1774,-0.1775,0,0,0,0,0,0,-0.1738,-0.1739,-0.1748,-0.1744,-0.1745,-0.1748,-0.175,-0.175,-0.1752,-0.1746,-0.1745,-0.1752,-0.1741,-0.174,-0.1746,-0.1789,-0.1734,-0.1734,-0.1771,-0.1773,-0.1774,-0.1863,0,0,0,0,0,0,-0.1737,-0.1739,-0.1739,-0.1744,-0.1746,-0.1763,-0.175,-0.175,-0.1754,-0.1754,-0.1748,-0.1747,-0.1741,-0.1747,-0.1746,-0.1787,-0.1733,-0.1769,-0.1771,-0.1774,-0.1858,-0.1868,-0.1875,0,0,0,0,0,-0.1737,-0.1741,-0.1738,-0.174,-0.1746,-0.1764,-0.1765,-0.1765,-0.1754,-0.1764,-0.1759,-0.1747,-0.1762,-0.1747,-0.1746,-0.1788,-0.1768,-0.1771,-0.1773,-0.1855,-0.1866,-0.1875,0,0,0,0,0,0,-0.1732,-0.1741,-0.1738,-0.1744,-0.1757,-0.1764,-0.1768,-0.1767,-0.177,-0.1766,-0.1755,-0.1754,-0.1779,-0.1765,-0.1749,-0.1806,-0.1766,-0.1769,-0.1828,-0.1838,-0.1847,-0.1841,-0.1733,0,0,0,0,0,-0.1731,-0.1735,-0.1748,-0.1752,-0.1758,-0.1762,-0.1767,-0.1772,-0.1775,-0.1776,-0.1773,-0.1774,-0.179,-0.1797,-0.18,-0.1824,-0.1794,-0.1852,-0.186,-0.1868,-0.1862,-0.1865,-0.1874,-0.1784,-0.1784,-0.1784,0,0,-0.1729,-0.1734,-0.1736,-0.1751,-0.1756,-0.1785,-0.1765,-0.1778,-0.1808,-0.1774,-0.1802,-0.1798,-0.18,-0.1835,-0.1846,-0.183,-0.1875,-0.1871,-0.1878,-0.1868,-0.1869,-0.1878,-0.1885,-0.1786,-0.1786,-0.1785,0,0,-0.1739,-0.1733,-0.1747,-0.1766,-0.1783,-0.1794,-0.1801,-0.1815,-0.1824,-0.1849,-0.1842,-0.1858,-0.1871,-0.1891,-0.1901,-0.1953,-0.1917,-0.196,-0.2006,-0.2011,-0.2018,-0.2024,-0.1988,-0.199,-0.197,-0.1971,-0.1971,0,-0.1737,-0.1756,-0.1755,-0.1784,-0.1803,-0.1803,-0.1836,-0.1854,-0.1871,-0.1882,-0.1868,-0.19,-0.1902,-0.1955,-0.198,-0.1975,-0.1952,-0.1972,-0.2022,-0.2028,-0.2032,-0.1993,-0.1995,-0.1975,-0.1975,-0.1974,-0.1974,0,-0.1768,-0.1787,-0.1798,-0.1836,-0.186,-0.1883,-0.1915,-0.1935,-0.194,-0.1955,-0.1991,-0.1993,-0.2012,-0.2029,-0.2023,-0.2072,-0.2035,-0.203,-0.1997,-0.2047,-0.2002,-0.2002,-0.1982,-0.198,-0.1979,-0.1978,0,0,-0.1749,-0.1808,-0.1812,-0.1838,-0.1887,-0.1908,-0.1963,-0.2006,-0.2032,-0.2052,-0.2087,-0.2124,-0.2112,-0.2121,-0.2123,-0.2131,-0.2148,-0.21,-0.2098,-0.2064,-0.2127,-0.2046,-0.2037,-0.2156,-0.2157,-0.2157,-0.2079,0,-0.1771,-0.1828,-0.1858,-0.1918,-0.1948,-0.1979,-0.2028,-0.2069,-0.2093,-0.2126,-0.2141,-0.2167,-0.2156,-0.2165,-0.218,-0.2153,-0.2153,-0.2167,-0.2083,-0.2079,-0.2003,-0.2037,-0.1905,-0.1821,-0.2078,-0.2078,-0.2078,0,-0.1786,-0.1824,-0.1884,-0.1951,-0.1967,-0.2008,-0.2069,-0.2115,-0.2169,-0.2186,-0.2219,-0.2222,-0.2251,-0.2226,-0.2209,-0.2218,-0.218,-0.2151,-0.2147,-0.2038,-0.1998,-0.1814,-0.1809,-0.2077,-0.2077,-0.2077,-0.2077,0,-0.1758,-0.1837,-0.1881,-0.1907,-0.1989,-0.202,-0.2062,-0.2124,-0.2155,-0.2217,-0.2233,-0.2269,-0.227,-0.2251,-0.2195,-0.2206,-0.2146,-0.2155,-0.204,-0.2032,-0.1884,-0.1862,-0.2136,-0.2136,-0.2136,-0.2137,-0.2137,0,-0.176,-0.1792,-0.1869,-0.1893,-0.1938,-0.2006,-0.2053,-0.2101,-0.2167,-0.2189,-0.2253,-0.2257,-0.2276,-0.2246,-0.2202,-0.2104,-0.215,-0.2041,-0.2015,-0.1909,-0.1891,-0.2087,-0.2082,-0.2134,-0.2134,-0.2135,-0.2135,0,-0.1714,-0.177,-0.1814,-0.1898,-0.1923,-0.195,-0.203,-0.2059,-0.2134,-0.2168,-0.2185,-0.2242,-0.22,-0.2187,-0.2135,-0.2091,-0.2019,-0.197,-0.1824,-0.1783,-0.1899,-0.19,-0.1847,-0.1844,-0.1841,-0.1838,-0.1836,0,-0.1696,-0.1715,-0.1789,-0.1807,-0.1842,-0.1895,-0.1923,-0.2019,-0.2044,-0.2128,-0.2125,-0.2136,-0.2102,-0.2009,-0.1935,-0.1841,-0.1911,-0.1667,-0.1679,-0.1893,-0.1873,-0.1879,-0.1883,-0.1508,-0.1503,-0.1499,-0.1497,0,-0.1645,-0.1665,-0.1696,-0.1729,-0.1761,-0.1795,-0.1844,-0.1862,-0.1957,-0.1985,-0.1993,-0.1984,-0.1927,-0.1781,-0.1686,-0.1615,-0.1681,-0.1588,-0.1849,-0.1609,-0.1569,-0.1551,-0.1568,-0.1464,-0.1467,-0.1469,-0.1471,-0.1472,-0.1583,-0.1581,-0.1611,-0.163,-0.1664,-0.1669,-0.165,-0.1703,-0.1714,-0.1721,-0.1791,-0.1729,-0.1719,-0.1504,-0.1407,-0.1338,-0.1452,-0.1393,-0.1406,-0.1423,-0.1405,-0.1364,-0.1214,-0.1215,-0.1217,-0.1218,-0.1219,0,-0.1493,-0.1498,-0.151,-0.1517,-0.1495,-0.1558,-0.1568,-0.1521,-0.1477,-0.1512,-0.1495,-0.134,-0.1249,-0.1241,-0.109,-0.1055,-0.1063,-0.1007,-0.103,-0.1062,-0.1091,-0.106,-0.0774,-0.0773,-0.0772,-0.0771,0,0,-0.1447,-0.1412,-0.1413,-0.1336,-0.1342,-0.1268,-0.1243,-0.1198,-0.1185,-0.1111,-0.1083,-0.1174,-0.1208,-0.0997,-0.0941,-0.0838,-0.0942,-0.0792,-0.1148,-0.1207,-0.1235,-0.1309,-0.1295,0,0,0,0,0]},{"header":{"parameterUnit":"m.s-1","parameterCategory":2,"la1":30.2991,"la2":30.254,"lo1":-89.0895,"lo2":-89.0444,"dy":0.0017,"dx":0.0017,"nx":28,"ny":28,"refTime":"2024-02-11T09:00:00:Z","depth":"2","parameterNumber":3,"parameterNumberName":"V-component_of_CURRENTS"},"data":[0,0,0,0,0,0,0,0,0,0,0,0,0,0,0,0,0,0,0,0,0,0,0,0,0,0,0,0,0,0,0,0,0,0,0,0,0,0,0,0,0,0,0,0,0,0,0,0,0,0,0,0,0,0,0,0,0,0,-0.0273,-0.0272,0,-0.0238,-0.0238,-0.0237,-0.0217,-0.0217,-0.0217,-0.0217,-0.013,-0.0128,-0.0125,0,0,0,0,0,0,0,0,0,0,0,0,0,-0.0291,-0.0291,-0.0273,-0.0272,-0.0272,-0.0238,-0.0238,-0.0237,-0.0217,-0.0217,-0.0217,-0.0217,-0.013,-0.0128,-0.0125,0,0,0,0,0,0,0,0,0,0,0,0,0,-0.0272,-0.0291,-0.0273,-0.0258,-0.0257,-0.0238,-0.0238,-0.0237,-0.0217,-0.0217,-0.0217,-0.0217,-0.0131,-0.0128,-0.0125,-0.0105,0,0,-0.0114,-0.0113,0,0,0,0,0,0,0,0,-0.0273,-0.0272,-0.0261,-0.0259,-0.0257,-0.0232,-0.0212,-0.0191,-0.0217,-0.0231,-0.0217,-0.0217,-0.0159,-0.0154,-0.0148,-0.0101,-0.0097,-0.0114,-0.0112,-0.011,-0.011,0,0,0,0,0,0,0,-0.0275,-0.0273,-0.0259,-0.026,-0.0258,-0.0243,-0.0241,-0.0208,-0.0195,-0.023,-0.0229,-0.0226,-0.0158,-0.0151,-0.0145,-0.0096,-0.0114,-0.0111,-0.0109,-0.0108,-0.0037,-0.0037,0,0,0,0,0,0,-0.0282,-0.0274,-0.026,-0.0258,-0.0266,-0.0243,-0.024,-0.024,-0.0196,-0.019,-0.0226,-0.0225,-0.0157,-0.0149,-0.0142,-0.012,-0.0111,-0.0107,-0.0105,-0.0036,-0.0037,-0.0037,0,0,0,0,0,0,-0.0282,-0.0281,-0.0261,-0.0265,-0.0262,-0.0243,-0.0243,-0.0239,-0.0232,-0.0194,-0.0186,-0.0223,-0.0156,-0.0147,-0.0121,-0.0116,-0.0106,-0.0103,-0.0036,-0.0036,-0.0037,-0.0072,0,0,0,0,0,0,-0.0283,-0.0281,-0.0284,-0.0266,-0.0262,-0.0257,-0.0243,-0.0239,-0.0231,-0.0229,-0.0188,-0.018,-0.0156,-0.0126,-0.0117,-0.0111,-0.01,-0.0036,-0.0036,-0.0037,-0.0071,-0.0074,-0.0076,0,0,0,0,0,-0.0284,-0.029,-0.0284,-0.0283,-0.0266,-0.0257,-0.0254,-0.0239,-0.0231,-0.0232,-0.0206,-0.0182,-0.0122,-0.0123,-0.0113,-0.0106,-0.0036,-0.0036,-0.0037,-0.007,-0.0073,-0.0076,0,0,0,0,0,0,-0.0298,-0.0288,-0.0282,-0.0284,-0.0274,-0.0254,-0.0253,-0.0241,-0.0222,-0.0219,-0.0182,-0.0172,-0.015,-0.0124,-0.0127,-0.0087,-0.0075,-0.0073,-0.0104,-0.0107,-0.0109,-0.0118,-0.0097,0,0,0,0,0,-0.0303,-0.0306,-0.0291,-0.0293,-0.029,-0.0271,-0.0265,-0.0256,-0.0236,-0.0228,-0.02,-0.017,-0.0143,-0.0123,-0.0098,-0.0072,-0.0032,-0.0061,-0.0064,-0.0066,-0.0068,0.0009,0.0013,-0.0038,-0.0038,-0.0038,0,0,-0.0308,-0.0303,-0.0304,-0.0297,-0.0287,-0.0292,-0.0267,-0.0262,-0.0264,-0.022,-0.021,-0.0179,-0.014,-0.0117,-0.0104,-0.0093,-0.0035,-0.0067,-0.0069,-0.0069,0.0009,0.0014,0.0019,-0.0038,-0.0038,-0.0038,0,0,-0.0329,-0.0317,-0.0331,-0.0327,-0.0319,-0.0305,-0.0306,-0.0288,-0.0276,-0.0262,-0.0233,-0.0198,-0.016,-0.0128,-0.0107,-0.0106,-0.0055,-0.01,-0.0111,-0.0038,-0.0032,-0.0027,0.0015,0.0024,-0.0095,-0.0095,-0.0095,0,-0.0337,-0.0355,-0.0332,-0.0348,-0.035,-0.0315,-0.0333,-0.0315,-0.0291,-0.0276,-0.0266,-0.0198,-0.0164,-0.0124,-0.0127,-0.011,-0.007,-0.0103,-0.004,-0.0034,-0.0028,0.0014,0.0025,-0.0097,-0.0097,-0.0097,-0.0097,0,-0.0374,-0.0387,-0.0393,-0.0403,-0.0398,-0.0406,-0.0382,-0.0369,-0.0346,-0.0321,-0.028,-0.0229,-0.0184,-0.0168,-0.0146,-0.0092,-0.008,-0.0055,-0.003,-0.0024,0.0019,0.0031,-0.01,-0.0099,-0.0098,-0.0098,0,0,-0.0395,-0.0418,-0.042,-0.0442,-0.0431,-0.0435,-0.0425,-0.0407,-0.0394,-0.0351,-0.0324,-0.0269,-0.0226,-0.02,-0.0157,-0.0094,-0.0023,-0.0061,-0.0056,-0.0019,0.0124,0.0111,0.0123,0.0021,0.0023,0.0025,0.0131,0,-0.0433,-0.0485,-0.0476,-0.0515,-0.054,-0.0505,-0.05,-0.0472,-0.0431,-0.0392,-0.0317,-0.0276,-0.0241,-0.0212,-0.0143,-0.005,0.0009,-0.0055,0.0111,0.0115,0.0106,0.0137,0.0107,0.0199,0.0143,0.0145,0.0147,0,-0.0474,-0.0507,-0.056,-0.0583,-0.0587,-0.0595,-0.0575,-0.0564,-0.049,-0.0453,-0.0383,-0.0319,-0.0227,-0.0195,-0.0026,-0.0067,0.0021,0.0092,0.0099,0.011,0.0125,0.0187,0.0223,0.0167,0.0165,0.0164,0.0162,0,-0.0519,-0.0561,-0.0609,-0.062,-0.0635,-0.0641,-0.0635,-0.0582,-0.0567,-0.0483,-0.0448,-0.0332,-0.0261,-0.0133,0.0008,0.0004,0.0193,0.0211,0.0278,0.0277,0.0294,0.0291,0.0333,0.0332,0.0332,0.0332,0.0332,0,-0.0569,-0.0607,-0.0636,-0.0668,-0.0711,-0.0692,-0.0704,-0.0676,-0.0616,-0.0587,-0.048,-0.0423,-0.0236,-0.0109,0.0011,0.0176,0.0202,0.0281,0.0313,0.0277,0.0271,0.0279,0.0271,0.0336,0.0335,0.0334,0.0334,0,-0.0615,-0.0635,-0.0696,-0.0728,-0.074,-0.0767,-0.0766,-0.0763,-0.0696,-0.0649,-0.0621,-0.0467,-0.0296,-0.0128,0.009,0.0181,0.0333,0.038,0.0304,0.0325,0.0365,0.0354,0.0478,0.0479,0.0479,0.048,0.048,0,-0.0645,-0.0683,-0.0748,-0.0785,-0.0805,-0.0837,-0.0853,-0.0813,-0.0798,-0.0679,-0.0655,-0.0481,-0.0353,-0.0058,0.0142,0.0351,0.0358,0.0426,0.0416,0.0366,0.0385,0.0373,0.0362,0.0423,0.0423,0.0423,0.0423,0,-0.0701,-0.0721,-0.0773,-0.0853,-0.0893,-0.0932,-0.0944,-0.0942,-0.0871,-0.0808,-0.0689,-0.0576,-0.0288,-0.005,0.0207,0.0317,0.0389,0.0429,0.0437,0.0375,0.0319,0.0335,0.0325,0.0422,0.0422,0.0422,0.0422,0.0422,-0.0731,-0.078,-0.0846,-0.0917,-0.0968,-0.1006,-0.1022,-0.1,-0.0964,-0.0838,-0.0731,-0.0533,-0.0303,0.0073,0.0256,0.0422,0.0419,0.046,0.0459,0.0458,0.0418,0.0364,0.0467,0.0467,0.0467,0.0467,0.0468,0,-0.0767,-0.0827,-0.0904,-0.0985,-0.104,-0.1053,-0.1067,-0.1044,-0.0987,-0.0844,-0.0707,-0.0443,-0.0182,0.0056,0.0325,0.0474,0.047,0.0488,0.0461,0.046,0.0459,0.0418,0.0468,0.0469,0.047,0.047,0,0,-0.079,-0.0875,-0.0921,-0.1027,-0.1075,-0.1116,-0.1116,-0.106,-0.0956,-0.0798,-0.064,-0.0447,-0.0166,0.0027,0.0219,0.036,0.0369,0.0364,0.0343,0.0287,0.0285,0.0418,0.035,0,0,0,0,0]}],[{"header":{"parameterUnit":"m.s-1","parameterCategory":2,"la1":30.2991,"la2":30.254,"lo1":-89.0895,"lo2":-89.0444,"dy":0.0017,"dx":0.0017,"nx":28,"ny":28,"refTime":"2024-02-11T09:00:00:Z","depth":"4","parameterNumber":2,"parameterNumberName":"U-component_of_CURRENTS"},"data":[0,0,0,0,0,0,0,0,0,0,0,0,0,0,0,0,0,0,0,0,0,0,0,0,0,0,0,0,0,0,0,0,0,0,0,0,0,0,0,0,0,0,0,0,0,0,0,0,0,0,0,0,0,0,0,0,0,0,-0.1223,-0.1224,0,-0.1249,-0.1249,-0.1249,-0.1276,-0.1276,-0.1277,-0.1277,-0.13,-0.13,-0.13,0,0,0,0,0,0,0,0,0,0,0,0,0,-0.119,-0.119,-0.1223,-0.1224,-0.1224,-0.1249,-0.1249,-0.125,-0.1276,-0.1276,-0.1277,-0.1277,-0.13,-0.13,-0.13,0,0,0,0,0,0,0,0,0,0,0,0,0,-0.1207,-0.119,-0.1223,-0.1241,-0.1243,-0.1249,-0.1249,-0.125,-0.1275,-0.1276,-0.1277,-0.1278,-0.13,-0.13,-0.13,-0.1287,0,0,-0.1301,-0.1301,0,0,0,0,0,0,0,0,-0.1206,-0.1208,-0.1238,-0.124,-0.1242,-0.1261,-0.1246,-0.1263,-0.1275,-0.1262,-0.1277,-0.1278,-0.1287,-0.1288,-0.129,-0.1289,-0.129,-0.1301,-0.1301,-0.1301,-0.1301,0,0,0,0,0,0,0,-0.1205,-0.1207,-0.1232,-0.1238,-0.1241,-0.1246,-0.1249,-0.1249,-0.1269,-0.1263,-0.1265,-0.127,-0.1288,-0.1289,-0.129,-0.129,-0.1301,-0.1301,-0.1301,-0.1302,-0.1335,-0.1336,0,0,0,0,0,0,-0.1204,-0.1206,-0.1231,-0.1233,-0.1227,-0.1246,-0.1249,-0.1253,-0.1269,-0.1273,-0.1269,-0.1271,-0.1289,-0.129,-0.1291,-0.1336,-0.1301,-0.1302,-0.1302,-0.1335,-0.1335,-0.1336,0,0,0,0,0,0,-0.1203,-0.1206,-0.123,-0.1221,-0.1225,-0.1246,-0.125,-0.1253,-0.1277,-0.1274,-0.1278,-0.1292,-0.1289,-0.1291,-0.1314,-0.1335,-0.1302,-0.1302,-0.1334,-0.1335,-0.1336,-0.1387,0,0,0,0,0,0,-0.1202,-0.1206,-0.1218,-0.1221,-0.1226,-0.1251,-0.1249,-0.1253,-0.1278,-0.1281,-0.1294,-0.1296,-0.129,-0.1314,-0.1314,-0.1335,-0.1302,-0.1333,-0.1334,-0.1336,-0.1385,-0.139,-0.1395,0,0,0,0,0,-0.1201,-0.1211,-0.1218,-0.1222,-0.1238,-0.1252,-0.1255,-0.1271,-0.1278,-0.1293,-0.1304,-0.1296,-0.1323,-0.1315,-0.1315,-0.1336,-0.1332,-0.1334,-0.1335,-0.1383,-0.1389,-0.1395,0,0,0,0,0,0,-0.1205,-0.1215,-0.1223,-0.1237,-0.1252,-0.1257,-0.1273,-0.1282,-0.1302,-0.131,-0.1307,-0.131,-0.1336,-0.1328,-0.1319,-0.1349,-0.1326,-0.1327,-0.1361,-0.1367,-0.1372,-0.1363,-0.1302,0,0,0,0,0,-0.121,-0.1221,-0.1233,-0.1247,-0.1256,-0.1268,-0.1279,-0.1291,-0.1303,-0.1314,-0.1324,-0.1332,-0.1338,-0.1348,-0.1351,-0.1369,-0.1353,-0.1381,-0.1386,-0.1391,-0.1384,-0.1386,-0.139,-0.1342,-0.1342,-0.1342,0,0,-0.1217,-0.1223,-0.1232,-0.1249,-0.1261,-0.128,-0.1277,-0.1301,-0.1322,-0.1312,-0.135,-0.1351,-0.1346,-0.1368,-0.1379,-0.1368,-0.1397,-0.1393,-0.1397,-0.1387,-0.1388,-0.1393,-0.1397,-0.1343,-0.1343,-0.1343,0,0,-0.1228,-0.1241,-0.1254,-0.127,-0.1293,-0.1301,-0.1313,-0.1333,-0.1351,-0.1381,-0.1377,-0.139,-0.141,-0.1406,-0.1406,-0.1437,-0.1422,-0.1446,-0.1468,-0.1471,-0.1475,-0.1478,-0.1467,-0.1468,-0.1451,-0.1451,-0.1451,0,-0.1239,-0.1251,-0.1262,-0.128,-0.1296,-0.1314,-0.1334,-0.1354,-0.1382,-0.1392,-0.1403,-0.1423,-0.1423,-0.1434,-0.1448,-0.1448,-0.1446,-0.1448,-0.1478,-0.1481,-0.1483,-0.147,-0.1471,-0.1454,-0.1454,-0.1453,-0.1453,0,-0.1251,-0.1274,-0.1284,-0.1311,-0.1332,-0.1353,-0.1379,-0.1405,-0.1428,-0.1441,-0.1468,-0.1471,-0.1478,-0.1486,-0.1479,-0.1497,-0.1488,-0.1483,-0.1463,-0.1491,-0.1476,-0.1476,-0.1458,-0.1457,-0.1456,-0.1455,0,0,-0.124,-0.1285,-0.1291,-0.1308,-0.1351,-0.1363,-0.1405,-0.1432,-0.145,-0.1486,-0.1503,-0.1522,-0.1523,-0.1521,-0.1518,-0.1523,-0.154,-0.1518,-0.1516,-0.1506,-0.1543,-0.1445,-0.1436,-0.1551,-0.1551,-0.1551,-0.1527,0,-0.1247,-0.1281,-0.1306,-0.1344,-0.1361,-0.1395,-0.1427,-0.1457,-0.1484,-0.1507,-0.1517,-0.1535,-0.1538,-0.1546,-0.1554,-0.1542,-0.1543,-0.1546,-0.1517,-0.1515,-0.1425,-0.1433,-0.1552,-0.1527,-0.1527,-0.1527,-0.1527,0,-0.1242,-0.1267,-0.1306,-0.135,-0.1361,-0.1394,-0.1434,-0.1465,-0.15,-0.1522,-0.1545,-0.1554,-0.1568,-0.1566,-0.1568,-0.1576,-0.1562,-0.1552,-0.1551,-0.1437,-0.1417,-0.1492,-0.1527,-0.1527,-0.1527,-0.1527,-0.1527,0,-0.1204,-0.126,-0.129,-0.1309,-0.1367,-0.1394,-0.1426,-0.1468,-0.1484,-0.1531,-0.1545,-0.157,-0.1577,-0.1581,-0.1568,-0.1577,-0.1557,-0.1561,-0.1456,-0.1449,-0.1524,-0.152,-0.1552,-0.1552,-0.1552,-0.1553,-0.1553,0,-0.118,-0.1205,-0.128,-0.1295,-0.1326,-0.1378,-0.1407,-0.1444,-0.1485,-0.1487,-0.1549,-0.1547,-0.1584,-0.1577,-0.157,-0.1506,-0.156,-0.1449,-0.1433,-0.1546,-0.1546,-0.1524,-0.1521,-0.1552,-0.1552,-0.1552,-0.1552,0,-0.1122,-0.1177,-0.121,-0.1284,-0.1308,-0.1328,-0.1387,-0.1393,-0.146,-0.1465,-0.1481,-0.1529,-0.1524,-0.1539,-0.1529,-0.1486,-0.1449,-0.1412,-0.1522,-0.1515,-0.1341,-0.1341,-0.1291,-0.1287,-0.1284,-0.1281,-0.1279,0,-0.1091,-0.1106,-0.1186,-0.1203,-0.124,-0.1281,-0.1296,-0.1367,-0.1366,-0.1432,-0.1413,-0.1443,-0.146,-0.1372,-0.1405,-0.1376,-0.1362,-0.1335,-0.1343,-0.1322,-0.1313,-0.1318,-0.1322,-0.1274,-0.1273,-0.1272,-0.1271,0,-0.1023,-0.1064,-0.1092,-0.1125,-0.1154,-0.117,-0.12,-0.1195,-0.1258,-0.1333,-0.1314,-0.1313,-0.1296,-0.1295,-0.1277,-0.126,-0.1352,-0.1302,-0.1308,-0.1316,-0.1301,-0.1296,-0.1304,-0.126,-0.1262,-0.1263,-0.1264,0,-0.097,-0.097,-0.1009,-0.1024,-0.1056,-0.1042,-0.1077,-0.1078,-0.1096,-0.1181,-0.1165,-0.1216,-0.127,-0.1231,-0.1216,-0.1191,-0.1177,-0.1144,-0.1159,-0.1171,-0.1143,-0.1108,-0.0983,0,0,0,0,0,-0.0906,-0.0889,-0.0898,-0.0903,-0.0928,-0.0941,-0.0995,-0.1032,-0.1102,-0.1055,-0.1111,-0.1098,-0.1088,-0.1117,-0.1064,-0.1151,-0.1174,-0.1084,-0.1143,-0.1199,-0.1212,-0.119,0,0,0,0,0,0,-0.0862,-0.0866,-0.0859,-0.0792,-0.0773,-0.0779,-0.0812,-0.0867,-0.0853,-0.0943,-0.0946,-0.1018,-0.1025,-0.1092,-0.1034,-0.1041,-0.1053,-0.1121,-0.1118,-0.1192,-0.1204,-0.1214,-0.1196,0,0,0,0,0]},{"header":{"parameterUnit":"m.s-1","parameterCategory":2,"la1":30.2991,"la2":30.254,"lo1":-89.0895,"lo2":-89.0444,"dy":0.0017,"dx":0.0017,"nx":28,"ny":28,"refTime":"2024-02-11T09:00:00:Z","depth":"4","parameterNumber":3,"parameterNumberName":"V-component_of_CURRENTS"},"data":[0,0,0,0,0,0,0,0,0,0,0,0,0,0,0,0,0,0,0,0,0,0,0,0,0,0,0,0,0,0,0,0,0,0,0,0,0,0,0,0,0,0,0,0,0,0,0,0,0,0,0,0,0,0,0,0,0,0,-0.021,-0.021,0,-0.0191,-0.0191,-0.019,-0.0179,-0.0179,-0.0179,-0.0179,-0.0119,-0.0117,-0.0116,0,0,0,0,0,0,0,0,0,0,0,0,0,-0.0219,-0.0218,-0.021,-0.021,-0.021,-0.0191,-0.0191,-0.019,-0.0179,-0.0179,-0.0179,-0.0179,-0.012,-0.0118,-0.0116,0,0,0,0,0,0,0,0,0,0,0,0,0,-0.0208,-0.0218,-0.021,-0.0202,-0.0201,-0.0191,-0.0191,-0.019,-0.0179,-0.0179,-0.0179,-0.0179,-0.012,-0.0118,-0.0115,-0.01,0,0,-0.0108,-0.0107,0,0,0,0,0,0,0,0,-0.0209,-0.0208,-0.0204,-0.0203,-0.0202,-0.0188,-0.0172,-0.0158,-0.0179,-0.0187,-0.0179,-0.0179,-0.0139,-0.0135,-0.0131,-0.0098,-0.0095,-0.0108,-0.0106,-0.0105,-0.0105,0,0,0,0,0,0,0,-0.021,-0.0209,-0.0202,-0.0203,-0.0202,-0.0194,-0.0192,-0.0169,-0.0162,-0.0187,-0.0186,-0.0185,-0.0138,-0.0133,-0.0129,-0.0094,-0.0108,-0.0106,-0.0104,-0.0103,-0.0082,-0.0083,0,0,0,0,0,0,-0.0214,-0.0209,-0.0203,-0.0201,-0.0206,-0.0194,-0.0192,-0.0192,-0.0163,-0.0159,-0.0185,-0.0184,-0.0137,-0.0132,-0.0127,-0.014,-0.0105,-0.0103,-0.0102,-0.0082,-0.0083,-0.0084,0,0,0,0,0,0,-0.0214,-0.0214,-0.0203,-0.0205,-0.0203,-0.0194,-0.0194,-0.0192,-0.0191,-0.0162,-0.0157,-0.0186,-0.0137,-0.013,-0.0119,-0.0136,-0.0102,-0.01,-0.0081,-0.0082,-0.0083,-0.0145,0,0,0,0,0,0,-0.0215,-0.0214,-0.0218,-0.0206,-0.0203,-0.0205,-0.0194,-0.0191,-0.019,-0.0189,-0.0161,-0.0156,-0.0137,-0.0123,-0.0116,-0.0132,-0.0098,-0.0079,-0.0081,-0.0083,-0.0141,-0.0148,-0.0153,0,0,0,0,0,-0.0215,-0.0221,-0.0218,-0.0217,-0.0208,-0.0206,-0.0204,-0.0196,-0.019,-0.0194,-0.0179,-0.0157,-0.0129,-0.0121,-0.0114,-0.0129,-0.0079,-0.0081,-0.0083,-0.0139,-0.0147,-0.0153,0,0,0,0,0,0,-0.0225,-0.022,-0.0217,-0.022,-0.0217,-0.0204,-0.0207,-0.02,-0.0191,-0.0189,-0.0162,-0.0155,-0.0155,-0.0132,-0.0124,-0.013,-0.0102,-0.0103,-0.0148,-0.0155,-0.0161,-0.0169,-0.0096,0,0,0,0,0,-0.0229,-0.0233,-0.0226,-0.023,-0.0229,-0.0218,-0.0216,-0.0212,-0.0201,-0.0198,-0.018,-0.0164,-0.0156,-0.0148,-0.0135,-0.013,-0.0101,-0.0137,-0.0144,-0.0149,-0.0151,-0.0125,-0.0128,-0.009,-0.009,-0.009,0,0,-0.0233,-0.0232,-0.0234,-0.0232,-0.0228,-0.0239,-0.0217,-0.0219,-0.0231,-0.0191,-0.0199,-0.0181,-0.016,-0.0164,-0.0161,-0.0147,-0.0145,-0.0151,-0.0156,-0.0155,-0.0127,-0.0131,-0.0134,-0.0092,-0.0091,-0.0091,0,0,-0.0251,-0.0243,-0.0257,-0.0259,-0.0259,-0.0254,-0.0256,-0.0248,-0.0248,-0.0248,-0.0232,-0.0226,-0.0204,-0.0201,-0.0195,-0.0223,-0.0178,-0.0219,-0.0253,-0.0227,-0.023,-0.0232,-0.02,-0.0199,-0.0221,-0.0221,-0.0221,0,-0.0258,-0.0276,-0.0261,-0.0278,-0.0287,-0.0264,-0.0287,-0.0282,-0.0273,-0.0276,-0.0259,-0.0244,-0.0226,-0.0237,-0.0252,-0.0237,-0.0209,-0.0227,-0.0235,-0.0236,-0.0237,-0.0203,-0.0201,-0.0224,-0.0224,-0.0223,-0.0223,0,-0.0291,-0.0307,-0.0315,-0.0332,-0.0337,-0.035,-0.0346,-0.0349,-0.0339,-0.0333,-0.0335,-0.0309,-0.03,-0.0298,-0.0282,-0.029,-0.0263,-0.0246,-0.0216,-0.0244,-0.0207,-0.0204,-0.0229,-0.0228,-0.0227,-0.0226,0,0,-0.0303,-0.0334,-0.0338,-0.0362,-0.0369,-0.0379,-0.0397,-0.0409,-0.042,-0.0402,-0.0414,-0.0404,-0.038,-0.0371,-0.035,-0.033,-0.0315,-0.0294,-0.0291,-0.0261,-0.0249,-0.021,-0.0202,-0.0295,-0.0294,-0.0294,-0.0221,0,-0.0337,-0.0388,-0.0391,-0.0438,-0.0465,-0.0456,-0.0476,-0.048,-0.0469,-0.047,-0.0443,-0.044,-0.041,-0.0404,-0.0383,-0.0331,-0.0308,-0.0336,-0.0227,-0.0224,-0.0184,-0.0197,-0.0294,-0.0218,-0.0217,-0.0216,-0.0216,0,-0.037,-0.0403,-0.0461,-0.0502,-0.0512,-0.0535,-0.0559,-0.0572,-0.0562,-0.055,-0.0534,-0.0502,-0.048,-0.0445,-0.0368,-0.0383,-0.0326,-0.028,-0.0275,-0.0214,-0.0178,-0.0182,-0.0209,-0.0209,-0.021,-0.021,-0.0211,0,-0.0398,-0.045,-0.0502,-0.0517,-0.0558,-0.0582,-0.0598,-0.06,-0.0611,-0.0596,-0.059,-0.0552,-0.0524,-0.0456,-0.0355,-0.0361,-0.0252,-0.0248,-0.0159,-0.0155,-0.0184,-0.0183,-0.0195,-0.0195,-0.0195,-0.0195,-0.0195,0,-0.0433,-0.0474,-0.0522,-0.0553,-0.0612,-0.062,-0.0664,-0.0668,-0.0667,-0.0673,-0.0632,-0.0612,-0.0523,-0.0446,-0.0364,-0.024,-0.0255,-0.0164,-0.0135,-0.0212,-0.0215,-0.0181,-0.0181,-0.0192,-0.0193,-0.0194,-0.0194,0,-0.0455,-0.0488,-0.0551,-0.0608,-0.063,-0.0669,-0.0712,-0.0732,-0.0723,-0.0725,-0.0721,-0.0654,-0.0543,-0.0438,-0.031,-0.0244,-0.0136,-0.0088,-0.0169,-0.0145,-0.0057,-0.0061,0.0003,0.0005,0.0007,0.0008,0.001,0,-0.0471,-0.0508,-0.0591,-0.0632,-0.0663,-0.0718,-0.0752,-0.0764,-0.0771,-0.0739,-0.0734,-0.0639,-0.0576,-0.0359,-0.0257,-0.0091,-0.0068,-0.002,-0.0055,-0.006,-0.0037,-0.0044,-0.0049,0.0012,0.0013,0.0013,0.0014,0,-0.0499,-0.053,-0.0581,-0.0666,-0.0721,-0.0774,-0.0813,-0.0818,-0.081,-0.0809,-0.0718,-0.0612,-0.048,-0.0333,-0.0192,-0.008,-0.006,-0.0002,-0.0006,-0.0038,-0.0048,-0.0029,-0.0037,0.0019,0.0019,0.0018,0.0018,0,-0.0511,-0.0551,-0.0619,-0.0689,-0.0758,-0.0799,-0.0822,-0.0809,-0.081,-0.0757,-0.0723,-0.0587,-0.0512,-0.0325,-0.0201,-0.0078,-0.0062,-0.0043,-0.0044,-0.0049,-0.0087,-0.0109,-0.0034,0,0,0,0,0,-0.0516,-0.0564,-0.0635,-0.0709,-0.0773,-0.0809,-0.0847,-0.0853,-0.084,-0.077,-0.074,-0.0608,-0.0407,-0.0328,-0.0196,-0.019,-0.0058,-0.0034,-0.0041,0.0052,0.0045,0.0013,0,0,0,0,0,0,-0.0524,-0.0591,-0.0632,-0.0704,-0.0749,-0.0812,-0.0833,-0.0828,-0.0776,-0.0744,-0.0631,-0.058,-0.0384,-0.0472,-0.0191,-0.0158,-0.0146,0.0055,0.0058,0.0055,0.0049,0.0044,0.0008,0,0,0,0,0]}]]